Heath, TX

12:54 PM CST on February 10, 2016 (GMT -0600)
Rockwall

Weather History for KF46 - March, 2013

Change the Weather History Date:

Saturday, March 30, 2013

  Actual Average (KDFW) Record (KDFW)
Temperature  
Mean Temperature 65 °F 61 °F  
Max Temperature 76 °F 72 °F 95 °F (1946)
Min Temperature 55 °F 50 °F 29 °F (1987)
Degree Days  
Heating Degree Days 0 5  
Month to date heating degree days 256  
Since 1 July heating degree days 2188  
Cooling Degree Days 0 2  
Month to date cooling degree days 33  
Year to date cooling degree days 40  
Growing Degree Days 15 (Base 50)    
Moisture  
Dew Point 60 °F    
Average Humidity 81    
Maximum Humidity 98    
Minimum Humidity 64    
Precipitation  
Precipitation 1.13 in 0.10 in 2.09 in (2007)
Month to date precipitation 3.38  
Year to date precipitation 8.17  
Snow  
Snow 0.00 in 0.00 in 0.10 in (1926)
Month to date snowfall 0.2  
Since 1 July snowfall 1.2  
Snow Depth -    
Sea Level Pressure  
Sea Level Pressure 29.98 in    
Wind  
Wind Speed 10 mph (South)    
Max Wind Speed 18 mph    
Max Gust Speed 29 mph    
Visibility 10 miles    
Events Rain , Thunderstorm    
T = Trace of Precipitation, MM = Missing Value Source: NWS Daily Summary

Daily Weather History Graph

Daily Weather History Graph

Search for Another Location

Airport or City:

Trip Planner

Search our weather history database for the weather conditions in past years. The results will help you decide how hot, cold, wet, or windy it might be!

Date:

Astronomy

Mar. 30, 2013 Rise Set
Actual Time 7:15 AM CDT 7:44 PM CDT
Civil Twilight 6:51 AM CDT 8:09 PM CDT
Nautical Twilight 6:22 AM CDT 8:38 PM CDT
Astronomical Twilight 5:52 AM CDT 9:08 PM CDT
Moon 11:39 PM CDT (3/30) 9:23 AM CDT (3/30)
Length of Visible Light 13h 18m
Length of Day
12h 28m
Waning Gibbous, 86% of the Moon is Illuminated
Mar 30
Waning Gibbous
Apr 2
Last Quarter
Apr 10
New
Apr 18
First Quarter
Apr 25
Full

Hourly Weather History & Observations

Time (CDT) Temp. Dew Point Humidity Pressure Visibility Wind Dir Wind Speed Gust Speed Precip Events Conditions
12:15 AM 66.4 °F 57.4 °F 73% 30.02 in 10.0 mi SE 12.7 mph 19.6 mph N/A   Scattered Clouds
12:55 AM 66.2 °F 57.4 °F 73% 30.02 in 10.0 mi South 12.7 mph 17.3 mph N/A   Mostly Cloudy
1:35 AM 65.5 °F 58.1 °F 77% 30.06 in 10.0 mi SSW 15.0 mph 21.9 mph N/A   Scattered Clouds
1:55 AM 65.3 °F 58.3 °F 78% 30.06 in 10.0 mi SSW 11.5 mph 19.6 mph N/A   Overcast
2:15 AM 65.3 °F 59.0 °F 80% 30.08 in 10.0 mi NW 10.4 mph 20.7 mph N/A Rain , Thunderstorm Light Thunderstorms and Rain
2:35 AM 58.5 °F 56.7 °F 94% 30.10 in 1.2 mi WNW 9.2 mph 28.8 mph 0.44 in Rain , Thunderstorm Heavy Thunderstorms and Rain
2:55 AM 57.6 °F 56.7 °F 97% 30.08 in 2.5 mi WSW 3.5 mph - 0.97 in Rain , Thunderstorm Heavy Thunderstorms and Rain
3:15 AM 57.2 °F 56.5 °F 97% 30.08 in 5.0 mi SW 11.5 mph - 0.07 in Rain , Thunderstorm Heavy Thunderstorms and Rain
3:35 AM 57.9 °F 57.2 °F 97% 30.04 in 7.0 mi SSE 4.6 mph - 0.13 in Rain , Thunderstorm Thunderstorms and Rain
3:55 AM 57.7 °F 57.2 °F 98% 30.05 in 10.0 mi SSW 9.2 mph - 0.16 in Rain , Thunderstorm Light Thunderstorms and Rain
4:15 AM 57.7 °F 57.0 °F 97% 30.06 in 10.0 mi SW 8.1 mph - N/A Rain , Thunderstorm Light Thunderstorms and Rain
4:35 AM 57.2 °F 55.8 °F 95% 30.04 in 10.0 mi SW 5.8 mph - N/A Thunderstorm Thunderstorm
4:55 AM 57.2 °F 55.4 °F 94% 30.03 in 10.0 mi Calm Calm - N/A   Scattered Clouds
5:15 AM 56.3 °F 55.4 °F 97% 30.01 in 10.0 mi SSW 3.5 mph - N/A   Clear
5:35 AM 55.8 °F 54.9 °F 97% 30.01 in 10.0 mi Calm Calm - N/A   Clear
5:55 AM 55.8 °F 55.0 °F 97% 30.02 in 10.0 mi SSW 9.2 mph - N/A   Clear
6:15 AM 55.8 °F 55.2 °F 98% 30.02 in 10.0 mi SSW 8.1 mph - N/A   Scattered Clouds
6:35 AM 56.3 °F 55.2 °F 96% 30.03 in 10.0 mi SSW 9.2 mph - N/A   Overcast
6:55 AM 55.8 °F 54.7 °F 96% 30.03 in 10.0 mi South 8.1 mph - N/A   Mostly Cloudy
7:15 AM 56.3 °F 55.0 °F 96% 30.04 in 10.0 mi South 5.8 mph - N/A   Overcast
7:35 AM 56.3 °F 54.7 °F 94% 30.04 in 10.0 mi South 6.9 mph - N/A   Overcast
7:55 AM 56.3 °F 54.9 °F 95% 30.04 in 10.0 mi South 5.8 mph - N/A   Mostly Cloudy
8:15 AM 58.3 °F 55.8 °F 91% 30.04 in 10.0 mi South 9.2 mph - N/A   Overcast
8:35 AM 58.5 °F 56.1 °F 92% 30.04 in 10.0 mi SSE 5.8 mph - N/A   Overcast
8:55 AM 59.9 °F 57.0 °F 90% 30.04 in 10.0 mi South 5.8 mph - N/A   Overcast
9:15 AM 61.9 °F 58.3 °F 88% 30.04 in 10.0 mi SSE 5.8 mph - N/A   Overcast
9:35 AM 63.1 °F 58.6 °F 85% 30.04 in 10.0 mi SSE 8.1 mph - N/A   Overcast
9:55 AM 63.0 °F 59.0 °F 87% 30.04 in 10.0 mi South 9.2 mph - N/A   Overcast
10:15 AM 64.0 °F 59.9 °F 86% 30.03 in 10.0 mi South 16.1 mph 23.0 mph N/A   Mostly Cloudy
10:35 AM 66.0 °F 61.2 °F 84% 30.03 in 10.0 mi South 16.1 mph 24.2 mph N/A   Scattered Clouds
10:55 AM 67.1 °F 61.5 °F 82% 30.03 in 10.0 mi SSW 18.4 mph 21.9 mph N/A   Mostly Cloudy
11:15 AM 67.1 °F 61.3 °F 82% 30.03 in 10.0 mi SSW 17.3 mph 28.8 mph N/A   Overcast
11:35 AM 67.6 °F 61.7 °F 81% 30.03 in 10.0 mi SSW 17.3 mph 23.0 mph N/A   Overcast
11:55 AM 69.1 °F 62.2 °F 79% 30.02 in 10.0 mi SW 16.1 mph 20.7 mph N/A   Overcast
12:15 PM 68.7 °F 62.1 °F 79% 30.02 in 10.0 mi SW 16.1 mph 21.9 mph N/A   Overcast
12:35 PM 69.8 °F 62.2 °F 77% 30.02 in 10.0 mi SSW 15.0 mph 20.7 mph N/A   Overcast
12:55 PM 71.1 °F 62.4 °F 74% 30.00 in 10.0 mi SSW 16.1 mph 23.0 mph N/A Thunderstorm Overcast
1:15 PM 72.3 °F 62.8 °F 72% 30.00 in 10.0 mi SSW 13.8 mph 24.2 mph N/A Thunderstorm Overcast
1:35 PM 73.2 °F 63.0 °F 70% 29.99 in 10.0 mi SSW 9.2 mph 24.2 mph N/A   Overcast
1:55 PM 74.3 °F 62.6 °F 67% 29.97 in 10.0 mi SW 11.5 mph 20.7 mph N/A   Overcast
2:15 PM 75.9 °F 63.3 °F 65% 29.96 in 10.0 mi SSW 12.7 mph 19.6 mph N/A   Overcast
2:35 PM 75.6 °F 62.8 °F 64% 29.95 in 10.0 mi SW 9.2 mph 16.1 mph N/A   Overcast
2:55 PM 75.0 °F 63.3 °F 67% 29.95 in 10.0 mi South 11.5 mph 26.5 mph N/A   Overcast
3:15 PM 74.7 °F 62.6 °F 66% 29.94 in 10.0 mi SW 12.7 mph 21.9 mph N/A   Overcast
3:35 PM 74.7 °F 62.8 °F 66% 29.93 in 10.0 mi South 10.4 mph 17.3 mph N/A   Overcast
3:55 PM 75.2 °F 62.4 °F 64% 29.92 in 10.0 mi SSW 12.7 mph 23.0 mph N/A   Overcast
4:15 PM 75.6 °F 62.6 °F 64% 29.92 in 10.0 mi SSW 9.2 mph 23.0 mph N/A   Overcast
4:35 PM 74.8 °F 62.1 °F 64% 29.92 in 10.0 mi SSW 9.2 mph 21.9 mph N/A   Overcast
4:55 PM 74.7 °F 62.4 °F 66% 29.92 in 10.0 mi SSW 11.5 mph 16.1 mph N/A   Overcast
5:15 PM 73.9 °F 62.4 °F 67% 29.92 in 10.0 mi South 10.4 mph 23.0 mph N/A   Overcast
5:35 PM 73.8 °F 62.8 °F 68% 29.91 in 10.0 mi South 12.7 mph - N/A   Overcast
5:55 PM 73.4 °F 62.8 °F 69% 29.91 in 10.0 mi South 12.7 mph 19.6 mph N/A   Overcast
6:15 PM 73.4 °F 62.4 °F 68% 29.91 in 10.0 mi SSW 11.5 mph 16.1 mph N/A   Overcast
6:35 PM 72.9 °F 62.4 °F 70% 29.90 in 10.0 mi South 11.5 mph 17.3 mph N/A   Overcast
6:55 PM 72.7 °F 61.9 °F 69% 29.91 in 10.0 mi South 10.4 mph - N/A   Overcast
7:15 PM 72.1 °F 61.9 °F 70% 29.90 in 10.0 mi South 11.5 mph - N/A   Overcast
7:35 PM 72.0 °F 61.7 °F 70% 29.90 in 10.0 mi South 5.8 mph 9.2 mph N/A   Overcast
7:55 PM 70.3 °F 61.7 °F 74% 29.90 in 10.0 mi South 11.5 mph - N/A   Overcast
8:15 PM 69.8 °F 61.7 °F 75% 29.89 in 10.0 mi SE 10.4 mph - N/A   Overcast
8:35 PM 68.7 °F 61.7 °F 78% 29.89 in 10.0 mi SSE 9.2 mph - N/A   Scattered Clouds
8:55 PM 68.4 °F 61.7 °F 79% 29.90 in 10.0 mi SE 5.8 mph - N/A   Clear
9:15 PM 66.4 °F 61.7 °F 85% 29.90 in 10.0 mi Calm Calm - N/A   Clear
9:35 PM 66.2 °F 61.7 °F 85% 29.91 in 10.0 mi ESE 3.5 mph - N/A   Clear
9:55 PM 66.2 °F 61.3 °F 84% 29.91 in 10.0 mi South 4.6 mph - N/A   Mostly Cloudy
10:35 PM 65.7 °F 61.7 °F 87% 29.91 in 10.0 mi SSE 5.8 mph - N/A   Mostly Cloudy
10:55 PM 66.7 °F 61.9 °F 84% 29.90 in 10.0 mi SSE 8.1 mph - N/A   Mostly Cloudy
11:15 PM 66.6 °F 61.7 °F 84% 29.91 in 10.0 mi SSE 8.1 mph - N/A   Scattered Clouds
11:35 PM 66.6 °F 61.2 °F 83% 29.90 in 10.0 mi SSE 6.9 mph - N/A   Clear
11:55 PM 65.5 °F 61.0 °F 85% 29.89 in 10.0 mi SSE 9.2 mph - N/A   Clear